GW6014 Weather Reports


time (UTC)temp
F
wind
direction
speed
knots
gust
knots
rain 1hr
in
rain 24hr
in
rain mn
in
humidity
%
barometer
mb
20260504160250 68 206 5.2 13.0 0.00 0.00 0.00 57 1008.5
20260504150716 71 245 5.2 11.3 0.00 0.00 0.00 51 1008.6
20260504150213 70 282 5.2 9.6 0.00 0.00 0.00 53 1008.4
20260504141142 68 204 4.3 6.1 0.00 0.00 0.00 61 1008.7
20260504140639 68 231 7.8 9.6 0.00 0.00 0.00 61 1008.6
20260504140134 67 252 6.1 7.8 0.00 0.00 0.00 63 1008.8
20260504130602 62 227 6.1 11.3 0.00 0.00 0.00 72 1009.1
20260504110450 58 217 0.0 1.7 0.00 0.00 0.00 77 1009.5
20260504100412 58 350 0.9 2.6 0.00 0.00 0.00 76 1009.1
20260504081806 59 338 0.0 1.7 0.00 0.00 0.00 79 1009.7
20260504081302 58 44 0.9 2.6 0.00 0.00 0.00 80 1009.5
20260504080758 58 326 0.9 1.7 0.00 0.00 0.00 82 1009.9
20260504080255 58 130 0.9 1.7 0.00 0.00 0.00 82 1009.8
20260504070223 58 32 0.9 0.9 0.00 0.00 0.00 80 1010.4
20260504060143 62 63 7.0 12.2 0.00 0.00 0.00 62 1011.4
20260504050611 63 187 5.2 7.0 0.00 0.00 0.00 59 1009.3
20260504050108 63 250 1.7 2.6 0.00 0.00 0.00 61 1009.7
20260504045605 63 213 0.9 1.7 0.00 0.00 0.00 60 1009.7
20260504045100 63 329 1.7 7.0 0.00 0.00 0.00 58 1009.2
20260504044558 62 205 7.0 7.8 0.00 0.00 0.00 59 1009.0
20260504044054 62 123 0.9 5.2 0.00 0.00 0.00 62 1009.1
20260504043552 63 316 0.9 0.9 0.00 0.00 0.00 61 1009.1
20260504043049 63 164 0.9 2.6 0.00 0.00 0.00 59 1009.4
20260504042546 63 229 2.6 7.8 0.00 0.00 0.00 58 1009.9
20260504042043 63 224 5.2 7.8 0.00 0.00 0.00 58 1010.1
20260504041539 62 233 4.3 7.0 0.00 0.00 0.00 58 1010.1
20260504041035 62 231 2.6 3.5 0.00 0.00 0.00 59 1010.2
20260504040533 63 202 3.5 5.2 0.00 0.00 0.00 58 1010.1
20260504040029 63 234 5.2 7.0 0.00 0.00 0.00 57 1010.4
20260504035526 63 215 6.1 7.8 0.00 0.00 0.00 56 1010.4
20260504035022 63 210 5.2 7.0 0.00 0.00 0.00 56 1010.3
20260504034520 63 204 3.5 5.2 0.00 0.00 0.00 56 1010.2
20260504034017 63 203 2.6 3.5 0.00 0.00 0.00 56 1010.5
20260504033515 63 226 1.7 2.6 0.00 0.00 0.00 56 1010.6
20260504033012 63 197 1.7 2.6 0.00 0.00 0.00 57 1010.5
20260504032509 63 300 0.9 2.6 0.00 0.00 0.00 57 1010.6
20260504032005 63 230 1.7 2.6 0.00 0.00 0.00 56 1010.6
20260504031502 63 231 0.0 0.9 0.00 0.00 0.00 58 1010.4
20260504030959 63 204 1.7 2.6 0.00 0.00 0.00 56 1010.5
20260504030456 64 237 1.7 2.6 0.00 0.00 0.00 56 1010.6
20260504025952 64 229 2.6 3.5 0.00 0.00 0.00 55 1010.6
20260504025449 64 231 3.5 3.5 0.00 0.00 0.00 54 1010.7
20260504024946 64 231 3.5 5.2 0.00 0.00 0.00 54 1010.4
20260504024443 65 228 2.6 7.8 0.00 0.00 0.00 53 1010.4
20260504023940 65 227 5.2 6.1 0.00 0.00 0.00 52 1010.4
20260504023436 65 229 3.5 7.8 0.00 0.00 0.00 52 1010.4
20260504022932 65 209 7.0 7.8 0.00 0.00 0.00 52 1010.3
20260504022429 65 209 3.5 7.0 0.00 0.00 0.00 52 1010.5
20260504021925 65 243 3.5 5.2 0.00 0.00 0.00 53 1010.6
20260504021423 65 229 3.5 3.5 0.00 0.00 0.00 53 1010.4
20260504020920 65 238 3.5 6.1 0.00 0.00 0.00 52 1010.4
20260504020416 66 246 2.6 3.5 0.00 0.00 0.00 51 1010.2
20260504015913 66 200 3.5 5.2 0.00 0.00 0.00 50 1010.2
20260504015409 67 247 4.3 6.1 0.00 0.00 0.00 49 1010.2
20260504014905 67 237 1.7 7.0 0.00 0.00 0.00 48 1010.2
20260504014401 67 215 5.2 7.8 0.00 0.00 0.00 47 1010.2
20260504013858 67 213 4.3 6.1 0.00 0.00 0.00 47 1009.9
20260504013357 67 108 1.7 5.2 0.00 0.00 0.00 47 1010.3
20260504012853 67 238 7.8 9.6 0.00 0.00 0.00 47 1009.8
20260504012351 67 180 5.2 8.7 0.00 0.00 0.00 48 1009.8
20260504011848 67 219 7.0 7.8 0.00 0.00 0.00 48 1009.9
20260504011344 67 213 3.5 5.2 0.00 0.00 0.00 49 1010.0
20260504010840 67 173 2.6 3.5 0.00 0.00 0.00 50 1009.8
20260504010336 67 131 1.7 3.5 0.00 0.00 0.00 51 1009.9
20260504005833 68 224 1.7 2.6 0.00 0.00 0.00 50 1009.9
20260504005330 69 231 1.7 2.6 0.00 0.00 0.00 48 1009.8
20260504004827 70 210 1.7 2.6 0.00 0.00 0.00 44 1009.9
20260504004325 70 205 3.5 6.1 0.00 0.00 0.00 42 1010.0
20260504003821 70 216 5.2 7.0 0.00 0.00 0.00 41 1009.9
20260504003318 70 230 2.6 6.1 0.00 0.00 0.00 42 1009.8
20260504002815 71 266 3.5 7.8 0.00 0.00 0.00 41 1010.0
20260504002312 71 229 5.2 7.8 0.00 0.00 0.00 40 1009.9
20260504001809 71 189 7.0 8.7 0.00 0.00 0.00 40 1010.0
20260504001306 71 255 4.3 6.1 0.00 0.00 0.00 41 1010.0
20260504000803 72 197 7.8 9.6 0.00 0.00 0.00 39 1010.0
20260504000300 72 223 4.3 9.6 0.00 0.00 0.00 39 1009.9
20260503235758 72 250 7.0 8.7 0.00 0.00 0.00 39 1009.9
20260503235255 73 277 6.1 8.7 0.00 0.00 0.00 38 1010.1
20260503234753 73 224 3.5 11.3 0.00 0.00 0.00 38 1010.2
20260503234250 73 248 3.5 9.6 0.00 0.00 0.00 39 1010.2
20260503233747 73 234 7.0 8.7 0.00 0.00 0.00 37 1010.3
20260503233243 73 209 9.6 12.2 0.00 0.00 0.00 37 1010.3
20260503232740 74 207 4.3 7.0 0.00 0.00 0.00 38 1010.2
20260503232237 74 240 7.8 8.7 0.00 0.00 0.00 36 1010.1
20260503231736 74 233 8.7 11.3 0.00 0.00 0.00 36 1010.3
20260503231232 74 246 7.8 12.2 0.00 0.00 0.00 36 1010.3
20260503230728 74 202 8.7 12.2 0.00 0.00 0.00 36 1010.4
20260503230226 74 198 7.0 9.6 0.00 0.00 0.00 36 1010.5
20260503225723 74 195 6.1 9.6 0.00 0.00 0.00 37 1010.5
20260503225223 74 246 7.8 9.6 0.00 0.00 0.00 37 1010.6
20260503224720 74 250 3.5 12.2 0.00 0.00 0.00 38 1010.6
20260503224218 74 238 6.1 9.6 0.00 0.00 0.00 36 1010.6
20260503223715 74 220 7.8 11.3 0.00 0.00 0.00 36 1010.7
20260503223213 74 221 9.6 13.0 0.00 0.00 0.00 35 1010.8
20260503222709 74 199 9.6 12.2 0.00 0.00 0.00 35 1010.8
20260503222207 74 249 5.2 12.2 0.00 0.00 0.00 37 1010.9
20260503221705 74 257 12.2 13.9 0.00 0.00 0.00 36 1010.9
20260503221203 74 204 7.8 15.6 0.00 0.00 0.00 37 1010.8
20260503220659 74 268 7.0 12.2 0.00 0.00 0.00 36 1010.8
20260503220155 74 187 8.7 14.8 0.00 0.00 0.00 35 1011.1
20260503215653 73 197 7.0 13.0 0.00 0.00 0.00 38 1011.1
20260503215149 73 208 9.6 13.9 0.00 0.00 0.00 36 1011.2
20260503214648 73 264 10.4 14.8 0.00 0.00 0.00 35 1011.2
20260503214144 73 198 8.7 13.0 0.00 0.00 0.00 35 1011.0
20260503213643 73 212 8.7 13.0 0.00 0.00 0.00 36 1011.2
20260503213139 73 194 11.3 18.2 0.00 0.00 0.00 36 1011.2
20260503212637 73 226 10.4 14.8 0.00 0.00 0.00 36 1011.3
20260503212134 73 190 3.5 8.7 0.00 0.00 0.00 38 1011.3
20260503211632 73 252 6.1 15.6 0.00 0.00 0.00 37 1011.4
20260503211127 73 231 5.2 15.6 0.00 0.00 0.00 37 1011.3
20260503210624 73 226 7.0 13.9 0.00 0.00 0.00 35 1011.5
20260503210120 72 237 5.2 9.6 0.00 0.00 0.00 37 1011.7
20260503205616 72 239 5.2 15.6 0.00 0.00 0.00 37 1011.8
20260503205112 72 210 8.7 16.5 0.00 0.00 0.00 36 1011.9
20260503204609 72 213 8.7 12.2 0.00 0.00 0.00 36 1012.0
20260503204107 72 237 7.8 15.6 0.00 0.00 0.00 36 1012.2
20260503203604 71 210 11.3 15.6 0.00 0.00 0.00 35 1012.3
20260503203101 71 177 5.2 18.2 0.00 0.00 0.00 36 1012.3
20260503202558 71 211 10.4 20.0 0.00 0.00 0.00 34 1012.5
20260503202056 71 210 11.3 13.9 0.00 0.00 0.00 36 1012.4
20260503201554 71 263 5.2 8.7 0.00 0.00 0.00 39 1012.6
20260503201051 70 201 7.8 16.5 0.00 0.00 0.00 41 1012.7
20260503200547 70 226 11.3 14.8 0.00 0.00 0.00 36 1012.9
20260503200044 70 238 7.8 12.2 0.00 0.00 0.00 36 1013.1
20260503195541 70 242 7.0 12.2 0.00 0.00 0.00 38 1013.1
20260503195038 70 185 7.8 11.3 0.00 0.00 0.00 38 1013.5
20260503194535 70 304 10.4 13.0 0.00 0.00 0.00 36 1013.4
20260503194035 70 219 7.0 14.8 0.00 0.00 0.00 37 1013.5
20260503193532 70 237 14.8 18.2 0.00 0.00 0.00 36 1013.8
20260503193027 70 234 6.1 14.8 0.00 0.00 0.00 40 1013.6
20260503192523 70 205 11.3 18.2 0.00 0.00 0.00 38 1013.9
20260503192019 69 196 6.1 9.6 0.00 0.00 0.00 40 1014.1
20260503191516 69 232 8.7 22.6 0.00 0.00 0.00 36 1014.3
20260503191013 69 178 9.6 13.0 0.00 0.00 0.00 36 1014.2
20260503190510 68 210 10.4 15.6 0.00 0.00 0.00 39 1014.5
20260503190008 68 209 12.2 19.1 0.00 0.00 0.00 37 1014.6
20260503185504 68 209 9.6 20.9 0.00 0.00 0.00 38 1014.6
20260503185003 68 242 9.6 13.0 0.00 0.00 0.00 39 1014.8
20260503184500 68 209 8.7 9.6 0.00 0.00 0.00 39 1015.0
20260503183956 68 71 13.0 16.5 0.00 0.00 0.00 38 1015.1
20260503183453 68 207 10.4 13.0 0.00 0.00 0.00 41 1015.2
20260503182950 67 221 7.0 13.0 0.00 0.00 0.00 42 1015.6
20260503182449 67 205 10.4 14.8 0.00 0.00 0.00 39 1015.8
20260503181946 67 138 10.4 20.0 0.00 0.00 0.00 40 1015.7
20260503181443 67 227 7.8 13.0 0.00 0.00 0.00 41 1016.1
20260503180939 67 216 10.4 13.0 0.00 0.00 0.00 42 1016.2
20260503180437 66 198 7.8 16.5 0.00 0.00 0.00 43 1015.9
20260503175934 65 213 10.4 19.1 0.00 0.00 0.00 42 1016.2
20260503175432 65 182 12.2 18.2 0.00 0.00 0.00 42 1016.5
20260503174927 66 234 9.6 19.1 0.00 0.00 0.00 41 1016.5
20260503174426 65 239 9.6 20.0 0.00 0.00 0.00 43 1016.5
20260503173925 65 211 9.6 15.6 0.00 0.00 0.00 43 1016.8
20260503173422 65 240 13.0 19.1 0.00 0.00 0.00 42 1017.0
20260503172919 65 201 8.7 13.9 0.00 0.00 0.00 44 1017.0
20260503172416 64 247 9.6 12.2 0.00 0.00 0.00 46 1017.2
20260503171913 64 212 11.3 18.2 0.00 0.00 0.00 45 1017.3
20260503171410 64 239 8.7 15.6 0.00 0.00 0.00 45 1017.4
20260503170907 64 264 7.8 12.2 0.00 0.00 0.00 44 1017.6
20260503170403 64 233 9.6 15.6 0.00 0.00 0.00 46 1017.8